Location: Brantley
(31.5822°N, 86.2569°W)
Time: 03:10:32
(UTC+00:00)

Vanguard 2 - Pass Details

Date: 18 February 2026
Orbit: 553 x 2896 km, 32.9° (Epoch: 7 March)

Event Time Altitude Azimuth Distance (km) Brightness Sun altitude
Rises 08:13:10 0° 208° (SSW) 5,349 - -53.2°
Reaches altitude 10° 08:18:36 10° 193° (SSW) 3,843 - -52.1°
Maximum altitude 08:24:24 18° 155° (SSE) 2,693 - -51.0°
Drops below altitude 10° 08:28:50 10° 114° (ESE) 2,797 - -50.1°
Exits shadow 08:29:56 - 106° (ESE) 2,983 10.9 -49.9°
Sets 08:31:55 0° 95° (E) 3,436 11.4 -49.5°
